[Iaude] MPEC H42: 2024 HS [a=1.20,e=0.14,i=10.1,H=25.7]

mpec at cfa.harvard.edu mpec at cfa.harvard.edu
Fri Apr 19 18:17:52 EDT 2024


M.P.E.C. 2024-H42                                Issued 2024 April 19, 22:16 UT

     The Minor Planet Electronic Circulars contain information on unusual
         minor planets, routine data on comets and natural satellites,
         and occasional editorial announcements.  They are published
    on behalf of Division F of the International Astronomical Union by the
          Minor Planet Center, Smithsonian Astrophysical Observatory,
                          Cambridge, MA 02138, U.S.A.
			  
             Prepared using the Tamkin Foundation Computer Network

                              MPC at CFA.HARVARD.EDU
            URL https://www.minorplanetcenter.net/    ISSN 1523-6714

                                    2024 HS                                     


Observations:
     K24H00S*1C2024 04 18.27012014 52 37.549+25 05 10.43         20.48GVEH042G96
     K24H00S 1C2024 04 18.27567314 52 35.969+25 04 05.74               VEH042G96
     K24H00S 1C2024 04 18.28122214 52 34.388+25 03 05.83         20.38GVEH042G96
     K24H00S 1C2024 04 18.28677814 52 32.844+25 02 04.96         20.45GVEH042G96
     K24H00S  C2024 04 18.30746314 52 26.201+24 58 07.94         20.5 GVEH042H01
     K24H00S  C2024 04 18.31244614 52 24.758+24 57 11.63         20.1 GVEH042H01
     K24H00S  C2024 04 18.32378014 52 21.475+24 55 03.35         20.2 GVEH042H01
     K24H00S  C2024 04 18.32983414 52 19.723+24 53 54.61         20.6 GVEH042H01
     K24H00S mC2024 04 18.43576714 51 49.763+24 33 40.21         20.86GVEH042I52
     K24H00S mC2024 04 18.43625614 51 49.630+24 33 35.03         21.22GVEH042I52
     K24H00S mC2024 04 18.43673814 51 49.493+24 33 29.88         21.28GVEH042I52
     K24H00S mC2024 04 18.43722414 51 49.349+24 33 24.34         20.86GVEH042I52
     K24H00S KC2024 04 19.88294314 46 34.71 +19 47 01.3          21.1 GXEH042I93
     K24H00S KC2024 04 19.89877614 46 30.71 +19 43 51.6          20.2 GXEH042I93

Observer details:
G96 Mt. Lemmon Survey.  Observer J. B. Fazekas.  Measurers T. Beuden, V. F.
    Carvajal, D. Fay, J. B. Fazekas, D. C. Fuls, A. R. Gibbs, A. D. Grauer, H.
    Groeller, J. K. Hogan, R. A. Kowalski, S. M. Larson, G. J. Leonard, D.
    Rankin, R. L. Seaman, F. C. Shelly, K. W. Wierzchos.  1.5-m reflector +
    10K CCD.
H01 Magdalena Ridge Observatory, Socorro.  Observers W. H. Ryan, E. V. Ryan.
    Measurer W. H. Ryan.  2.4-m f/8.9 Ritchey-Chretien + CCD.
I52 Steward Observatory, Mt. Lemmon Station.  Observer J. K. Hogan.  Measurers
    T. Beuden, V. F. Carvajal, D. Fay, J. B. Fazekas, D. C. Fuls, A. R. Gibbs,
    A. D. Grauer, H. Groeller, J. K. Hogan, R. A. Kowalski, S. M. Larson, G.
    J. Leonard, D. Rankin, R. L. Seaman, F. C. Shelly, K. W. Wierzchos.  1.0-m
    prime focus + CCD.
I93 St Pardon de Conques.  Observer F. Losse.  0.40-m f/3.7 reflector + CCD.

Orbital elements:
2024 HS                                                  Earth MOID = 0.0498 AU
Epoch 2024 Mar. 31.0 TT = JDT 2460400.5                 MPC                     
M  10.77151              (2000.0)            P               Q                  
n   0.75407178     Peri.  136.79572     -0.99054189     -0.08169502             
a   1.1954395      Node    38.92658     +0.01307788     -0.85598491             
e   0.1425703      Incl.   10.10482     +0.13658598     -0.51050539             
P   1.31           H   25.74          G   0.15           U   7                  
Residuals in seconds of arc
240418 G96  0.1+  0.2-    240418 H01  0.0   0.1-    240418 I52  0.0   0.4+
240418 G96 (0.0   2.8-)   240418 H01  0.1-  0.1+    240418 I52  0.0   0.5+
240418 G96  0.1-  0.6-    240418 H01  0.0   0.1+    240419 I93  0.7-  0.3-
240418 G96  0.5+  0.8+    240418 I52  0.0   0.6-    240419 I93  0.7+  0.3+
240418 H01  0.0   0.1-    240418 I52  0.1+  0.1-

Ephemeris:
2024 HS                  a,e,i = 1.20, 0.14, 10                  q = 1.0250
Date    TT    R. A. (2000) Decl.     Delta      r    Elong.  Phase     V
2024 03 20    16 12 09.9 +64 34 32   0.1176  1.0252   101.2    72.3    23.7
...
2024 04 04    15 41 34.4 +53 54 30   0.08100 1.0316   110.8    65.0    22.6
...
2024 04 12    15 15 42.2 +41 29 01   0.06307 1.0386   123.5    53.6    21.8
...
2024 04 18    14 53 33.6 +25 56 34   0.05331 1.0452   139.6    38.5    21.0
2024 04 19    14 49 47.5 +22 45 11   0.05222 1.0465   142.9    35.4    20.9
2024 04 20    14 46 01.4 +19 24 48   0.05133 1.0477   146.3    32.1    20.8
...
2024 04 26    14 23 53.9 -02 14 37   0.05066 1.0559   168.5    10.9    20.1
...
2024 05 04    13 57 50.7 -26 34 25   0.06218 1.0684   164.7    14.4    20.7
...
2024 05 19    13 29 46.7 -47 09 11   0.1053  1.0959   141.4    35.2    22.5

A. U. Tomatic                (C) Copyright 2024 MPC           M.P.E.C. 2024-H42





More information about the Iaude mailing list